Regional Weather Roundup
Issued by NWS

Home | Current Version | Previous Version | Text Only | Print | Product List | Glossary On
Versions: 1 2 3 4 5 6 7 8 9 10 11 12 13 14 15 16 17 18 19 20 21 22 23 24 25 26 27 28 29 30 31 32 33 34 35 36 37 38 39 40 41 42 43 44 45 46 47 48 49 50
000
ASUS43 KLSX 240259
RWRMO

WEATHER SUMMARY FOR MISSOURI
NATIONAL WEATHER SERVICE SPRINGFIELD MO
1000 PM CDT THU MAR 23 2017

NOTE: "FAIR" INDICATES FEW OR NO CLOUDS BELOW 12,000 FEET WITH NO
       SIGNIFICANT WEATHER AND/OR OBSTRUCTIONS TO VISIBILITY.
       CURRENT SKY AND/OR WEATHER CONDITIONS ARE NOT AVAILABLE FOR
       CHILLICOTHE AND FARMINGTON.

MOZ001>031-035>038-043-044-053-054-240400-
...NORTHERN AND WESTERN MISSOURI...

CITY           SKY/WX    TMP DP  RH WIND       PRES   REMARKS
KANSAS CTY INT CLOUDY    71  45  39 S23G31    29.79R
KANSAS C DTWN  MOCLDY    73  45  36 S13G24    29.78S
LEE`S SUMMIT   PTCLDY    71  45  39 S17G26    29.81S
ST JOSEPH      PTCLDY    72  46  39 S16       29.76R
CHILLICOTHE      N/A     70  48  45 S9        29.82R
KIRKSVILLE     CLOUDY    54  32  43 SE13      29.85F

$$
MOZ066>068-077>081-088>096-101>105-240400-
...SOUTHWEST MISSOURI...

CITY           SKY/WX    TMP DP  RH WIND       PRES   REMARKS
SPRINGFIELD    CLEAR     69  51  52 S20       29.92S
JOPLIN         CLEAR     71  48  43 SE15      29.85F

$$
MOZ032>034-039>042-045>050-055>058-069>072-240400-
...CENTRAL MISSOURI...

CITY           SKY/WX    TMP DP  RH WIND       PRES   REMARKS
COLUMBIA       CLEAR     68  52  56 S17       29.90S
JEFFERSON CITY CLEAR     72  50  45 S16       29.92R
ROLLA          CLEAR     64  51  62 S15G24    29.96S
SEDALIA        CLEAR     72  49  44 S22       29.87S
WARRENSBURG    PTCLDY    68  43  40 S14       29.82F
OSAGE BEACH    CLEAR    N/A N/A N/A S17G23    29.93S

$$
MOZ051-052-059>065-240400-
...EAST CENTRAL MISSOURI...

CITY           SKY/WX    TMP DP  RH WIND       PRES   REMARKS
ST LOUIS INTL  CLEAR     60  43  53 S14       30.01S
SPIRIT OF STL  CLEAR     62  46  55 S9        29.99S
ST CHARLES     CLEAR     57  45  64 SE14      29.99F

$$
MOZ072>076-082>087-097>100-106>115-240400-
...SOUTH CENTRAL AND SOUTHEAST MISSOURI...

CITY           SKY/WX    TMP DP  RH WIND       PRES   REMARKS
CAPE GIRARDEAU CLEAR     56  44  64 SE9       30.07F
FARMINGTON     CLEAR     58  46  64 S7        30.05F
POPLAR BLUFF   CLEAR     60  50  69 SE7       30.06S
WEST PLAINS    CLEAR     63  50  62 SE7       30.04S

$$



USA.gov is the U.S. government's official web portal to all federal, state and local government web resources and services.